Location: Flotzheim
(48.8375°N, 10.8136°E)
Time: 04:22:35
(UTC+00:00)

USA 229 - Pass Details

Date: 23 January 2021
Orbit: 964 x 1248 km, 63.4° (Epoch: 26 February)

Event Time Altitude Azimuth Distance (km) Brightness Sun altitude
Rises 17:25:48 0° 316° (NW) 3,911 7.1 -13.9°
Reaches altitude 10° 17:28:29 10° 321° (NW) 2,992 6.4 -14.3°
Maximum altitude 17:35:33 57° 40° (NE) 1,363 4.0 -15.5°
Enters shadow 17:41:55 15° 115° (ESE) 2,798 5.4 -16.5°
